weather.gov     
National Weather Service

Regional Weather Roundup
NWS Homepage
This page is being discontinued on March 12, 2014.
The same data is available at this site. Please update your bookmarks.
Thank you, and we apologize for the inconvenience.
Please send an email to SR-SRH.Webmaster@noaa.gov with any concerns.


Current Version
Previous Version:    01  02  03  04  05  06  07  08  09  10  11  12  13  14  15  16  17  18  19  20  21  22  23  24  25  26  27  28  29  30  
   31  32  33  34  35  36  37  38  39  40  41  42  43  44  45  46  47  48  49  50  51  52  53  
[Printable]
698
ASUS43 KLSX 220107
RWRMO

WEATHER SUMMARY FOR MISSOURI
NATIONAL WEATHER SERVICE SPRINGFIELD MO
700 PM CST FRI NOV 21 2014

NOTE: "FAIR" INDICATES FEW OR NO CLOUDS BELOW 12,000 FEET WITH NO
       SIGNIFICANT WEATHER AND/OR OBSTRUCTIONS TO VISIBILITY.
       CURRENT SKY AND/OR WEATHER CONDITIONS ARE NOT AVAILABLE FOR
       CHILLICOTHE AND FARMINGTON.

MOZ001>031-035>038-043-044-053-054-220200-
...NORTHERN AND WESTERN MISSOURI...

CITY           SKY/WX    TMP DP  RH WIND       PRES   REMARKS
KANSAS CTY INT CLOUDY    40  35  83 SE9       30.07F
KANSAS C DTWN  CLOUDY    45  39  79 E5        30.08S
LEE`S SUMMIT   CLOUDY    44  38  79 SE6       30.08F
ST JOSEPH      CLOUDY    39  32  76 E3        30.09F
CHILLICOTHE      N/A     39  29  67 SE5       30.13F
KIRKSVILLE     CLOUDY    38  22  52 SE13      30.15F WCI  30

$$
MOZ066>068-077>081-088>096-101>105-220200-
...SOUTHWEST MISSOURI...

CITY           SKY/WX    TMP DP  RH WIND       PRES   REMARKS
SPRINGFIELD    CLOUDY    43  39  86 SE17      30.14F
JOPLIN         CLOUDY    51  45  79 SE9       30.11S

$$
MOZ032>034-039>042-045>050-055>058-069>072-220200-
...CENTRAL MISSOURI...

CITY           SKY/WX    TMP DP  RH WIND       PRES   REMARKS
COLUMBIA       CLOUDY    44  28  53 SE14      30.17S
JEFFERSON CITY CLOUDY    45  27  49 E7        30.19F
ROLLA          CLOUDY    43  33  68 SE13      30.18S
SEDALIA        CLOUDY    44  31  60 SE14      30.13F
WHITEMAN AFB   MOCLDY    41  36  84 SE8       30.10F
WARRENSBURG    CLOUDY    43  36  75 E6        30.10F
OSAGE BEACH    CLOUDY    45  34  65 SE9       30.17F

$$
MOZ051-052-059>065-220200-
...EAST CENTRAL MISSOURI...

CITY           SKY/WX    TMP DP  RH WIND       PRES   REMARKS
ST LOUIS INTL  CLOUDY    43  22  43 SE15      30.27F
SPIRIT OF STL  CLOUDY    42  23  46 SE7       30.25F
ST CHARLES     CLOUDY    39  23  52 SE7       30.27F

$$
MOZ072>076-082>087-097>100-106>115-220200-
...SOUTH CENTRAL AND SOUTHEAST MISSOURI...

CITY           SKY/WX    TMP DP  RH WIND       PRES   REMARKS
CAPE GIRARDEAU CLOUDY    44  32  62 SE3       30.33S
FARMINGTON     CLOUDY    39  32  75 E9        30.29F
POPLAR BLUFF   CLOUDY    40  37  89 NE3       30.31S
WEST PLAINS    CLOUDY    38  35  89 SE5       30.25S FOG

$$




U.S. Dept. of Commerce
NOAA National Weather Service
1325 East West Highway
Silver Spring, MD 20910
E-mail: w-nws.webmaster@noaa.gov
Page last modified: May 16, 2007
NATIONAL WEATHER SERVICE: for Safety, for Work, for Fun - FOR LIFE